Wind_Speed
28 28 29 29 27 26 26 28 24 22 30 30 23 22 19 19 16 15 27 32 26 26 27 27 27 26 27 29 30 30 34 34 29 32 32 30 31 29 30 32 34 35 34 33 32 30 30 29 29 29 28 26 25 18 7 3 7 8 9 9 9 9 8 9 11 13 12 11 14 16 17 19 20 20 21 21 22 21 20 21 21 20 19 19 19 18
26 28 29 27 26 28 30 30 28 31 34 28 26 27 23 25 19 16 30 32 27 28 27 27 28 27 28 31 31 27 33 38 30 30 33 30 30 29 28 32 35 34 34 34 34 30 28 29 28 27 27 26 24 18 7 2 5 8 10 11 14 14 13 12 13 15 15 15 16 17 18 19 19 21 21 21 21 20 19 20 20 19 19 19 18 17
25 28 26 25 28 31 31 30 30 33 31 25 27 28 25 24 18 18 29 30 28 29 28 29 28 28 30 31 30 26 32 39 32 29 33 30 29 30 28 31 34 33 32 33 32 28 25 26 25 25 24 24 23 17 6 2 5 8 10 12 14 16 16 17 17 19 19 18 18 18 18 19 20 21 21 20 20 20 19 19 19 20 19 19 17 15
24 26 25 27 30 30 28 29 30 30 29 28 27 26 25 23 19 21 26 28 29 29 28 30 29 30 32 31 29 27 31 37 33 29 32 31 29 29 28 30 35 34 32 33 31 27 26 25 24 24 23 24 23 16 7 4 6 10 11 13 14 16 17 18 20 20 20 19 18 19 20 20 22 22 22 21 21 20 19 19 20 21 20 19 17 14
24 26 27 28 28 26 27 29 29 29 29 28 27 27 26 22 20 21 23 27 31 29 27 28 29 30 31 29 28 27 29 33 33 30 30 30 28 28 28 30 35 34 31 32 30 28 30 27 24 25 24 24 22 16 9 6 8 12 14 15 16 17 18 20 22 21 20 19 20 21 22 22 23 23 23 23 22 22 21 21 20 20 20 19 17 14
23 27 28 25 25 26 28 28 27 27 28 28 27 26 27 25 24 25 25 27 31 28 24 26 28 28 27 24 24 24 25 30 31 30 29 28 27 27 28 29 33 33 30 30 30 29 32 30 26 26 26 25 22 17 12 8 9 12 15 17 19 21 22 23 23 22 21 20 22 24 25 24 24 24 25 25 23 21 22 21 20 20 20 18 16 14
25 30 27 23 27 27 26 27 26 27 27 27 27 27 28 29 29 30 28 28 30 25 21 26 27 24 21 18 19 19 22 26 26 27 29 29 28 27 28 28 31 33 31 30 30 29 32 33 28 26 25 23 21 18 14 10 8 12 17 20 23 25 25 23 21 21 22 23 24 26 27 26 25 25 25 24 22 21 22 22 22 21 19 17 15 14
28 30 25 23 27 26 25 27 26 26 26 24 27 31 30 28 28 30 29 28 29 23 21 27 26 23 22 19 19 20 23 24 20 24 28 27 28 27 27 27 28 33 33 30 31 31 33 31 25 21 20 19 20 20 16 12 12 16 20 23 25 26 24 22 20 20 23 25 26 27 27 27 25 24 24 23 22 23 24 24 22 19 17 16 15 14
29 30 27 26 27 25 26 27 26 27 26 24 29 33 29 27 29 28 28 27 25 23 23 26 25 25 25 21 20 24 25 20 18 26 26 23 26 25 26 28 26 33 35 30 31 33 31 26 20 18 17 18 22 23 20 17 19 23 25 26 26 23 22 23 23 22 22 23 26 27 26 26 25 23 23 23 24 25 25 22 19 18 17 16 15 13
30 31 30 28 26 26 27 27 28 28 25 26 32 31 26 27 28 26 26 23 21 24 24 22 22 24 24 19 19 24 25 21 23 27 22 20 24 25 28 29 27 33 36 30 29 30 27 23 19 18 19 21 24 24 23 23 24 26 28 28 24 22 23 24 25 25 23 22 23 24 24 24 23 23 23 24 25 24 22 20 19 18 17 15 14 13
32 31 28 27 26 27 28 27 29 28 26 29 31 27 24 26 26 25 24 21 20 25 24 19 19 23 23 20 20 23 26 24 23 22 18 19 23 25 27 27 28 34 33 29 27 27 25 22 21 22 23 24 24 24 26 30 31 31 30 27 23 22 23 24 25 26 24 23 22 21 22 24 24 23 23 23 24 23 20 18 18 17 16 15 14 13
34 29 25 26 26 27 28 27 29 28 26 28 27 24 24 23 23 24 21 20 23 25 22 16 15 21 25 24 23 24 26 25 21 18 17 19 21 23 24 25 30 33 29 26 25 24 25 23 23 25 25 25 26 27 30 35 37 32 28 27 24 21 21 24 27 25 23 22 23 24 24 25 25 23 23 24 24 21 18 17 17 16 15 15 14 14
30 27 24 27 27 27 28 26 27 28 25 24 24 23 24 21 20 21 19 21 24 21 18 16 17 21 24 25 25 24 24 22 19 18 16 17 19 21 24 27 29 29 26 25 24 25 26 25 25 27 27 29 29 30 33 36 35 29 27 28 26 22 22 26 28 27 24 22 22 27 28 26 23 22 24 26 24 19 17 16 15 15 15 15 15 15
27 26 25 27 27 26 26 25 25 26 24 23 23 23 24 21 20 20 18 20 21 19 18 19 22 22 22 25 26 24 22 20 18 17 15 15 17 19 22 23 24 25 26 26 26 27 27 27 28 28 29 31 32 32 33 34 31 29 29 30 29 27 26 27 29 29 28 24 20 22 25 23 21 21 24 24 20 15 15 14 15 15 16 16 16 14
24 24 24 25 25 25 24 24 25 25 24 23 22 22 23 22 21 18 16 17 19 18 18 20 22 22 21 25 25 23 22 21 21 19 16 14 16 19 19 17 18 21 22 23 26 27 27 27 27 26 28 30 29 29 29 28 27 28 31 31 31 31 28 28 29 28 27 25 21 19 20 20 20 21 24 22 16 14 14 14 15 16 16 16 15 14
23 22 22 23 24 25 24 23 26 26 23 22 23 24 25 24 22 20 18 18 19 17 16 18 20 20 21 25 24 21 20 21 22 20 18 16 17 19 18 15 15 17 17 19 21 22 24 24 23 22 24 27 26 25 26 23 22 24 27 30 32 30 28 27 27 26 26 26 24 22 21 21 22 23 25 24 18 16 14 14 16 16 16 16 15 14
24 20 20 23 24 24 23 23 27 26 21 21 24 25 26 24 21 20 21 21 21 20 19 18 19 20 21 23 22 21 19 19 21 21 18 17 19 20 19 16 15 15 14 15 15 17 18 19 18 19 20 23 24 24 23 21 21 23 26 29 29 29 27 26 25 26 26 26 25 24 23 22 22 23 25 25 20 16 15 15 16 16 16 17 15 15
26 22 21 25 25 23 22 23 26 27 25 25 23 22 23 24 23 23 22 22 21 22 23 22 19 19 23 24 21 20 19 20 22 22 19 19 20 21 21 19 17 14 13 13 14 15 16 17 18 18 20 23 24 24 22 21 22 25 27 28 27 28 26 23 24 26 25 25 25 24 24 23 23 24 25 23 20 17 16 16 16 16 17 16 16 16
27 26 26 28 25 23 25 25 25 26 27 27 26 23 23 23 24 26 25 24 23 22 24 23 19 20 25 26 20 16 18 20 21 21 22 22 22 22 22 22 20 18 16 16 16 17 18 19 19 20 22 24 25 26 24 24 25 26 28 27 27 29 27 22 21 23 24 24 23 24 25 24 23 23 24 22 20 18 17 17 16 16 15 15 16 17
28 26 26 27 24 23 26 26 26 27 28 29 29 28 26 24 24 24 25 25 23 21 22 19 18 22 25 23 19 15 15 17 20 21 22 22 22 24 26 25 25 24 21 20 20 21 22 23 24 26 28 27 28 28 27 27 27 26 26 26 27 30 28 22 19 20 22 22 22 24 26 25 22 22 23 23 21 19 18 18 17 15 14 14 17 18
29 27 26 27 26 26 26 25 26 27 27 29 31 29 27 26 24 24 25 26 24 23 23 19 20 24 22 19 18 15 12 15 18 21 22 21 21 23 27 29 28 28 27 25 25 25 25 26 28 30 31 31 31 30 29 29 29 28 27 26 29 30 28 24 21 21 21 21 21 22 21 23 23 22 22 23 22 20 19 19 19 18 16 17 19 20
28 28 27 27 28 28 26 24 24 26 27 28 29 29 28 28 26 25 25 25 25 24 20 16 19 22 19 18 17 14 13 15 17 21 23 22 22 22 26 31 32 31 31 29 28 28 28 29 29 31 31 31 31 31 31 31 31 30 28 28 29 30 29 26 23 22 21 21 22 20 19 21 23 23 23 23 22 21 19 19 20 19 17 19 20 20
27 26 27 29 27 24 23 25 27 28 28 28 27 28 29 30 29 26 24 25 26 24 19 16 20 21 16 14 15 14 14 15 17 21 22 23 23 22 23 27 31 33 33 31 30 30 30 31 32 33 33 32 31 32 33 33 33 32 31 30 30 30 29 26 23 21 21 22 22 21 19 20 21 22 22 22 22 21 21 21 20 18 18 19 20 20
29 27 27 29 27 24 25 29 28 27 28 30 29 27 26 28 30 29 26 25 26 26 21 17 21 24 17 12 13 13 13 15 17 20 22 23 23 23 23 24 25 28 29 29 30 31 33 35 35 35 35 35 34 33 34 35 35 35 35 34 31 29 27 25 23 21 20 22 23 21 19 19 21 21 21 21 21 21 22 22 20 19 20 19 19 19
28 26 26 28 28 28 28 28 28 27 29 31 30 28 27 29 30 29 27 26 23 22 19 15 18 24 19 13 14 15 14 16 16 18 20 21 22 23 23 23 23 23 23 25 28 30 33 35 35 35 35 35 35 34 35 37 37 35 35 35 32 28 26 25 23 21 21 22 23 22 20 19 21 22 22 22 21 21 21 22 21 22 22 21 20 19
26 26 28 28 28 29 29 28 27 28 29 28 28 31 31 30 30 30 29 28 24 22 22 21 21 21 16 13 15 16 16 16 16 17 18 18 19 20 20 20 21 22 23 25 27 29 31 32 33 33 33 34 36 36 37 37 37 35 34 33 30 26 25 24 22 22 21 21 23 24 22 22 23 24 25 25 23 22 22 21 22 23 23 21 21 21
28 29 29 29 30 31 30 30 29 28 28 26 29 34 32 29 30 32 31 29 26 25 27 28 26 22 17 14 14 15 16 16 16 17 17 17 18 18 18 18 19 21 23 25 26 27 29 30 31 32 34 35 36 36 37 36 36 35 33 29 26 25 25 24 23 23 23 23 24 25 24 25 26 27 28 27 24 22 22 22 23 23 23 23 22 23
29 30 31 31 33 33 32 31 29 29 28 27 30 34 31 29 31 32 29 29 30 28 27 27 24 19 15 14 14 14 14 14 16 17 16 16 17 18 18 18 18 19 20 22 23 25 27 29 30 31 32 33 34 35 36 35 32 29 27 26 25 26 26 26 26 26 26 26 26 25 24 25 27 27 27 27 25 23 23 23 24 24 25 25 25 25
32 31 31 31 32 32 33 32 30 29 28 27 29 29 27 27 28 28 29 31 30 29 28 27 23 17 14 14 15 15 14 14 15 15 16 16 16 17 18 18 18 18 18 19 20 22 25 27 27 27 27 28 31 33 32 30 27 24 23 23 25 26 26 27 28 29 29 27 26 25 23 23 24 25 24 24 24 24 24 24 24 25 26 26 26 25
35 33 31 30 30 31 31 30 30 31 30 30 29 27 26 27 27 27 30 31 31 31 31 28 25 22 18 14 13 14 15 16 15 15 16 16 15 15 16 17 17 17 18 18 19 20 22 23 23 23 23 26 29 27 24 24 25 24 23 22 23 24 25 26 27 29 29 28 27 26 24 24 24 23 23 23 23 23 24 24 24 25 26 26 26 25
36 36 34 30 29 29 29 30 31 32 34 35 33 30 29 28 28 28 28 29 31 32 32 29 27 24 21 17 14 13 14 15 15 15 16 16 15 14 14 15 16 17 18 18 18 19 21 21 21 20 20 21 24 22 21 24 24 23 22 22 23 24 25 25 26 27 29 29 28 27 25 25 24 22 23 25 24 23 23 23 23 24 25 26 26 26
34 37 35 31 30 31 31 31 32 33 36 37 34 32 31 31 30 29 28 29 31 32 31 30 28 25 22 20 18 17 16 16 16 16 16 16 17 16 15 15 16 17 17 17 17 18 19 19 19 18 17 15 14 15 18 23 24 22 20 21 22 23 24 24 23 25 28 30 29 27 26 25 24 23 24 25 24 22 22 22 22 23 24 26 28 28
31 33 33 32 33 33 32 33 34 35 38 39 35 33 34 33 32 31 30 31 32 32 31 30 28 25 23 23 21 19 19 18 18 17 17 18 18 18 17 17 17 18 17 16 17 17 17 18 17 16 15 12 9 9 13 17 20 19 19 20 21 20 21 22 21 22 24 26 26 26 24 23 22 22 23 23 21 20 20 21 22 22 23 24 26 27
28 27 28 30 32 32 31 31 32 34 37 39 36 34 34 34 33 32 31 32 32 32 32 30 29 27 26 25 23 21 21 21 21 20 19 19 20 20 20 19 19 19 18 17 17 17 17 17 16 15 14 11 8 8 10 13 14 15 17 18 19 19 19 19 20 21 22 23 23 23 22 20 19 19 20 21 20 21 21 22 23 24 24 24 25 26
25 22 24 27 28 29 27 25 26 28 31 34 36 36 37 36 34 32 31 32 33 33 32 31 30 28 28 26 25 24 23 23 22 22 21 20 21 21 21 21 21 21 21 19 18 19 18 17 15 14 13 11 9 8 9 12 14 14 15 16 17 17 17 17 18 18 19 20 21 21 21 20 19 19 21 21 21 23 23 23 24 25 25 25 25 26
26 21 22 24 25 25 26 25 24 22 22 24 27 31 36 37 36 34 33 33 33 33 33 32 31 30 29 28 27 26 26 25 24 23 21 21 21 21 22 22 22 23 22 21 21 21 20 18 16 15 14 13 12 9 9 11 13 14 15 15 16 16 16 17 17 17 18 19 19 19 19 19 19 20 21 22 22 23 23 23 23 23 24 25 27 28
28 23 22 23 22 22 24 24 22 20 20 20 20 23 29 34 37 36 33 33 33 33 33 32 32 32 31 31 30 29 28 27 26 25 23 22 22 22 22 22 23 24 23 23 23 23 22 20 19 17 16 16 15 13 12 12 13 15 15 16 16 16 17 17 17 16 17 17 17 17 18 18 19 20 21 22 23 22 22 23 23 23 24 25 25 23
27 22 22 24 23 22 22 20 20 20 20 20 19 19 21 26 32 35 35 35 34 33 33 33 34 34 34 34 33 31 30 30 28 27 26 25 24 24 24 24 24 24 24 25 25 25 24 23 22 20 19 18 17 16 15 14 15 16 17 17 17 17 18 19 18 17 17 16 16 17 18 18 19 20 21 22 23 22 22 23 24 24 24 24 22 19
24 22 22 22 21 22 21 20 21 22 21 19 19 19 20 22 25 29 32 34 34 34 34 34 34 34 36 37 36 34 32 31 30 29 29 28 26 26 26 27 27 26 25 26 26 26 26 26 24 23 21 20 20 19 18 16 15 17 19 19 17 17 18 19 19 18 18 18 18 18 18 19 19 20 20 20 21 21 22 24 25 25 24 23 20 19
20 20 20 19 18 19 18 16 18 20 19 18 18 18 19 21 23 25 28 30 32 32 32 32 30 31 34 37 37 35 33 32 31 31 31 31 30 28 28 29 29 28 27 27 27 27 27 27 27 25 22 21 22 23 22 21 17 16 19 20 19 18 19 20 20 19 19 20 20 20 21 21 21 21 20 20 20 21 21 23 24 24 23 22 21 21
16 16 19 18 18 19 20 18 16 15 14 15 16 17 17 18 20 23 25 27 28 29 30 30 29 28 29 32 34 35 33 33 34 34 34 33 32 30 29 30 30 30 29 29 28 27 27 28 28 27 24 23 24 23 22 21 19 17 17 18 20 21 22 23 23 23 23 22 22 22 22 21 22 22 21 21 21 21 21 23 23 24 24 24 24 24
18 17 18 16 15 18 21 20 17 15 14 13 14 15 15 16 17 20 21 23 25 25 26 26 27 28 28 29 31 33 33 33 34 34 34 34 33 32 31 30 30 31 31 31 30 29 28 27 28 27 26 26 28 26 23 22 22 21 20 18 19 21 24 25 26 25 25 24 23 23 22 22 22 23 24 24 24 24 24 25 26 26 26 26 26 26
18 17 16 15 14 16 18 17 16 16 16 16 15 13 12 13 13 14 16 18 19 21 21 22 22 24 26 26 28 30 32 33 33 32 33 34 35 35 34 33 32 32 32 32 32 31 30 29 28 27 27 29 31 31 29 28 27 26 25 24 23 23 24 25 26 26 27 26 25 24 23 23 23 24 25 27 27 28 28 28 28 29 29 29 29 28
18 16 15 15 15 15 14 14 14 14 15 17 16 14 13 12 11 11 13 14 15 17 18 18 19 21 22 23 23 25 27 29 30 30 31 32 34 36 36 36 35 34 34 34 33 32 32 30 29 28 29 31 33 33 33 33 32 30 28 28 28 28 27 27 26 26 27 28 27 27 26 26 26 26 26 28 29 29 30 30 30 31 31 31 31 31
15 14 13 14 16 16 14 14 14 13 13 15 15 15 14 13 12 12 12 13 14 15 16 16 17 18 19 21 22 22 24 25 26 28 29 31 32 33 34 34 34 35 35 35 34 34 33 31 31 30 29 30 32 33 34 34 31 29 28 28 29 30 30 30 29 29 29 29 28 28 28 29 29 28 28 29 30 31 31 32 33 33 33 34 34 34
14 13 12 12 15 16 15 14 14 13 14 14 14 15 15 15 15 15 14 15 15 16 17 17 17 18 18 19 21 21 22 23 24 26 27 29 29 29 30 31 32 32 34 34 34 34 33 32 32 31 30 31 32 32 33 32 30 27 27 26 26 27 28 29 29 30 30 30 30 30 31 32 32 32 31 31 32 32 33 34 35 35 36 36 37 37
14 14 14 13 13 14 14 14 13 13 13 13 14 14 15 15 16 16 17 18 18 18 19 19 19 20 20 21 21 21 21 22 23 24 26 26 25 25 26 27 27 28 30 31 32 33 33 32 32 32 32 33 33 32 31 31 29 27 26 25 24 25 25 27 28 29 30 31 32 32 32 33 34 35 35 34 34 34 34 35 35 36 36 37 38 38
15 15 15 15 14 14 14 14 13 13 14 14 14 15 15 15 16 17 17 19 20 20 21 21 21 22 23 24 24 23 23 23 23 23 24 23 22 21 22 24 24 24 24 26 27 28 29 30 31 32 33 34 35 35 34 32 30 29 29 28 27 27 27 28 29 30 31 31 31 30 30 31 32 33 34 34 34 34 35 35 36 37 38 38 39 40
14 15 17 17 17 17 17 17 17 17 17 17 17 17 17 17 17 17 17 18 18 20 21 22 22 23 24 25 26 26 26 26 25 25 24 24 22 22 22 24 25 26 26 27 28 29 30 30 31 33 34 35 36 36 36 35 31 29 29 28 27 27 28 28 29 30 30 30 29 29 29 29 30 32 33 34 36 36 37 38 39 39 40 41 42 43
13 14 16 18 18 19 19 19 19 19 19 19 19 19 19 19 19 19 19 19 19 20 22 22 22 23 24 26 27 27 28 28 28 27 26 26 26 26 26 26 26 26 27 29 30 32 33 34 35 35 35 36 35 35 35 34 32 31 31 29 27 27 28 29 29 29 29 29 29 29 29 29 30 31 33 34 35 36 37 38 39 39 40 41 41 42
9 11 13 15 16 18 18 19 19 20 20 20 21 21 21 21 21 21 22 23 24 24 24 24 23 23 25 26 27 28 28 28 29 29 29 28 28 29 30 31 31 30 30 29 30 30 32 34 35 35 34 33 33 33 34 33 33 32 32 31 30 29 29 29 29 29 29 29 29 28 28 29 29 30 31 32 33 34 35 36 37 37 38 39 39 40
Wind_Direction
250 251 251 251 250 249 245 245 239 224 235 238 236 244 238 231 235 246 258 262 265 261 258 261 258 251 247 248 250 253 264 265 255 254 255 255 260 258 258 262 264 265 265 262 260 262 265 266 270 274 278 282 287 298 325 290 260 250 239 222 213 217 208 203 210 216 221 226 226 223 220 222 226 231 232 233 237 240 243 250 252 252 255 259 261 261
249 250 250 249 248 246 244 243 239 237 246 250 243 245 247 244 235 241 260 263 264 263 261 262 261 257 250 249 251 247 255 266 264 257 257 254 257 258 256 261 263 264 266 260 253 256 262 264 268 271 273 278 281 288 306 282 244 243 245 230 224 232 230 228 230 230 234 236 231 226 222 223 228 231 231 234 238 241 243 247 248 249 254 256 257 258
246 248 247 246 245 245 246 245 244 247 251 248 245 247 247 247 240 239 257 264 264 264 264 264 261 256 254 255 255 245 247 263 267 259 259 257 254 257 257 260 263 263 264 259 252 255 259 260 262 264 267 271 276 281 285 234 218 221 235 235 233 236 236 239 238 231 231 231 226 224 222 226 231 233 234 237 241 244 242 240 242 249 257 259 258 258
243 246 245 242 245 247 248 248 247 249 251 247 247 250 246 243 238 240 255 266 265 265 266 266 265 261 261 263 260 251 245 256 264 259 259 259 254 255 256 258 261 259 256 256 257 258 255 252 254 257 261 265 270 273 261 223 212 208 218 230 235 237 237 240 238 232 232 230 225 224 224 230 235 234 235 238 241 243 238 234 241 252 259 260 259 257
239 243 242 242 248 249 247 248 249 249 249 249 246 246 246 238 233 240 250 262 267 269 269 268 269 267 268 269 266 261 254 254 258 256 255 257 255 254 253 254 259 259 256 258 260 257 250 246 247 251 254 258 264 264 253 230 215 208 213 223 227 227 229 234 236 234 232 228 225 227 229 233 237 238 237 236 239 242 235 232 241 252 257 258 256 252
238 243 244 244 247 247 246 248 248 248 247 248 247 248 248 238 232 241 249 259 267 272 275 272 271 270 271 276 272 264 258 254 253 251 251 251 250 250 250 250 257 260 257 256 257 253 248 244 241 244 248 252 256 256 250 237 220 212 211 217 221 224 227 229 232 233 231 228 227 229 231 235 236 236 236 234 238 239 230 232 247 255 256 255 251 249
235 243 246 241 244 245 245 247 245 246 246 246 248 246 245 242 241 250 255 258 262 267 271 271 268 266 264 262 260 252 247 250 250 246 246 244 242 243 246 248 253 258 255 250 252 250 246 242 236 240 248 255 261 262 260 250 226 215 212 214 220 226 229 231 234 236 234 234 234 231 229 235 238 238 238 236 235 232 229 239 253 256 253 251 250 250
235 245 248 239 242 245 243 245 244 244 244 242 246 246 245 247 248 252 254 256 261 260 259 265 267 264 257 249 255 257 248 251 254 246 242 241 241 240 243 246 248 255 254 245 244 244 242 241 238 241 250 259 266 264 258 249 230 222 218 219 225 230 235 241 242 237 235 239 241 238 234 236 240 239 239 237 232 231 236 245 251 252 252 251 250 250
241 242 244 238 239 242 242 244 243 242 240 235 243 248 247 246 247 250 252 255 260 257 251 260 266 265 262 251 252 259 257 256 254 250 245 241 243 241 240 242 242 251 254 245 243 245 245 247 246 244 244 248 253 251 246 238 230 225 223 226 233 239 248 254 250 238 236 241 243 243 240 237 236 233 234 238 237 237 241 245 248 251 253 251 250 250
244 239 239 241 240 241 242 243 243 243 237 233 244 252 248 245 247 250 252 251 253 256 254 254 257 264 269 260 247 249 253 254 248 249 249 238 238 238 236 232 231 244 250 246 247 249 249 250 246 238 233 235 243 248 245 236 231 229 230 235 243 249 253 256 256 249 247 250 248 245 242 239 238 237 238 239 238 238 239 241 249 255 255 254 253 251
243 244 242 244 242 241 243 242 244 244 236 238 247 253 249 247 248 247 248 243 240 251 260 257 251 257 262 259 247 238 239 246 248 251 250 238 234 238 239 234 230 240 248 247 245 244 241 240 236 231 228 228 234 243 242 237 237 238 239 244 247 251 251 252 257 259 260 261 258 254 250 246 247 245 242 237 232 233 234 241 255 261 260 258 254 251
245 251 247 246 243 241 241 240 243 244 240 244 251 251 248 246 247 247 244 239 239 249 263 267 256 252 255 256 251 241 239 244 253 258 250 238 235 238 241 239 239 244 249 248 242 238 236 233 230 229 228 227 228 232 236 238 241 244 248 250 249 249 248 250 258 265 268 267 260 256 252 249 248 244 240 235 228 229 234 247 260 263 261 258 252 251
247 254 249 245 242 239 239 239 242 244 241 244 246 244 241 237 241 245 239 241 249 255 257 256 249 245 249 253 251 246 245 246 251 255 245 234 235 237 239 240 243 246 246 243 239 236 234 229 227 228 227 227 225 226 231 239 246 252 254 255 259 259 252 252 259 263 269 272 264 254 249 246 245 239 237 230 222 228 243 254 260 258 257 254 248 248
248 253 249 246 243 241 240 237 241 244 240 240 242 241 237 229 233 243 239 239 250 255 248 243 245 244 247 254 253 251 251 246 241 241 236 232 235 238 243 245 246 244 241 239 234 231 230 227 226 227 229 230 228 229 236 243 249 256 256 256 260 262 258 259 262 264 272 279 275 259 246 241 238 236 233 222 216 236 255 258 259 256 252 247 244 245
243 247 250 251 247 242 239 235 238 242 239 236 235 235 234 226 225 237 241 239 245 251 247 245 248 250 252 256 256 256 254 246 236 233 232 231 234 238 240 240 241 240 236 232 227 224 224 225 226 228 233 236 236 238 245 250 253 257 257 258 260 260 260 263 264 269 275 278 278 269 255 244 240 241 232 219 228 256 258 255 255 250 244 241 238 238
237 240 247 250 247 243 236 231 234 236 235 234 231 227 226 222 222 229 232 233 236 236 237 247 254 253 252 254 257 258 253 242 233 229 230 230 233 237 234 225 227 232 231 227 223 221 222 223 224 226 233 241 244 246 251 257 261 262 260 261 262 260 261 263 265 269 274 277 277 271 265 254 246 242 230 227 247 259 248 248 247 241 237 234 231 232
234 236 241 242 244 245 236 229 232 230 225 229 232 231 226 221 222 229 234 235 233 228 233 249 259 260 259 256 254 253 247 235 226 225 228 230 232 233 228 219 217 221 226 226 220 218 218 219 218 218 228 240 246 249 253 257 262 265 266 265 262 259 262 265 266 267 273 280 276 268 266 259 249 240 232 236 251 250 241 242 237 232 231 229 228 229
231 229 235 239 240 243 235 228 230 228 221 220 224 228 228 224 224 227 232 236 236 236 242 250 256 261 265 261 252 246 239 227 221 223 226 226 228 230 224 218 216 218 222 222 220 219 218 220 220 219 226 236 242 246 249 253 257 262 267 267 261 258 262 268 269 269 275 281 274 265 265 262 253 244 239 242 248 243 240 238 230 227 226 225 227 229
226 225 233 239 241 242 236 229 229 229 225 222 219 218 217 220 228 233 234 236 239 242 245 248 248 250 258 262 261 254 241 226 218 223 227 223 222 224 221 217 215 218 223 221 221 224 225 228 231 230 231 235 241 245 249 253 255 259 264 266 263 258 259 267 272 272 277 281 274 266 263 260 252 244 241 242 243 241 239 236 232 225 221 225 229 230
224 224 232 238 238 240 237 230 229 230 228 224 222 220 215 214 222 231 235 236 239 243 245 246 247 248 253 259 262 259 243 226 219 225 232 230 224 220 218 216 213 215 219 221 223 226 228 233 237 239 240 241 245 248 251 254 254 257 261 263 262 258 255 261 271 276 277 276 272 270 264 251 241 239 240 241 243 241 237 236 233 222 224 237 236 233
225 224 229 233 233 237 238 233 229 232 233 230 228 227 222 221 223 226 232 234 234 237 239 240 244 248 252 255 256 256 241 222 218 225 234 238 236 227 217 213 214 216 217 218 223 227 230 234 238 242 246 247 248 249 250 251 252 253 255 256 256 255 253 256 267 275 272 266 267 270 259 240 234 237 240 241 243 241 237 238 233 224 232 243 238 235
226 224 227 232 234 236 239 237 230 228 231 231 230 229 227 228 231 232 234 238 236 234 234 238 245 249 254 256 257 258 247 228 221 227 233 236 240 239 226 215 213 216 218 218 222 228 233 237 240 244 247 248 250 253 256 260 259 255 253 252 253 252 251 253 263 272 268 261 262 261 251 241 237 236 237 239 238 236 235 236 231 227 235 240 235 237
225 223 223 229 233 234 232 232 229 226 227 227 226 226 227 229 233 233 235 239 240 237 233 237 249 253 251 250 250 251 248 236 226 229 235 236 239 243 241 228 217 216 218 218 220 226 232 237 241 245 249 252 255 259 265 270 271 266 260 256 254 252 251 251 258 265 261 257 257 253 248 244 235 231 235 237 236 234 233 231 228 229 234 235 236 240
221 219 220 224 228 229 229 231 231 229 230 230 228 226 226 227 230 232 234 238 240 237 230 226 244 254 252 244 242 243 242 237 230 230 234 239 242 244 248 247 234 223 218 218 220 225 231 236 241 245 250 255 258 261 266 269 271 271 267 260 256 254 250 247 251 255 252 249 251 251 250 244 235 232 234 234 234 235 232 228 228 233 235 233 237 243
218 217 220 221 222 225 229 232 231 227 228 231 231 230 228 226 228 229 231 237 238 234 229 223 237 249 252 244 238 238 240 237 233 232 234 239 244 246 248 249 245 236 228 225 227 230 235 240 244 248 254 259 262 265 267 265 265 269 265 257 254 250 242 240 244 246 242 241 245 249 251 248 241 235 232 230 230 230 230 228 227 229 232 235 238 240
219 217 219 219 220 224 226 227 226 224 224 227 229 230 228 227 229 230 232 238 240 236 238 242 244 245 245 240 235 236 240 239 234 233 234 236 241 245 247 246 244 242 241 240 241 243 246 249 253 257 261 263 264 265 264 260 261 266 262 253 248 241 232 234 238 237 234 235 240 244 246 246 243 235 229 228 228 228 227 228 228 225 227 235 238 236
223 221 220 219 221 224 223 224 226 227 228 228 231 232 230 229 232 233 234 239 241 236 238 246 249 246 240 235 232 231 235 238 237 235 234 237 240 241 243 242 241 243 245 248 250 252 255 257 259 261 262 263 263 263 260 258 261 263 255 244 238 232 229 232 232 227 227 231 236 240 242 244 242 233 226 226 227 227 227 226 228 226 224 229 234 236
224 225 224 224 227 228 228 228 230 235 236 232 231 233 232 232 233 233 232 237 239 238 239 243 247 245 240 238 235 233 232 231 234 236 236 238 241 242 241 239 238 241 244 248 251 253 254 256 257 259 260 261 261 259 257 256 258 254 242 233 231 232 233 233 229 227 228 230 234 239 241 243 240 232 226 227 227 227 230 230 229 228 227 227 231 235
225 227 226 228 231 233 234 232 231 234 235 226 225 232 235 234 235 233 232 235 238 241 242 243 246 252 253 243 235 236 237 230 229 236 238 238 238 240 241 239 238 240 243 246 250 252 254 257 258 260 259 257 255 252 247 247 248 241 232 230 233 235 235 232 229 231 234 232 233 237 239 241 241 235 229 231 230 228 231 234 233 232 231 231 232 235
227 229 229 231 234 233 233 234 234 236 237 231 229 234 236 235 236 235 235 237 240 242 245 248 252 257 256 241 229 236 241 238 236 237 238 238 239 239 241 241 241 243 245 249 252 255 258 260 262 264 262 260 258 249 234 232 238 236 232 233 235 233 231 229 230 234 236 235 234 237 236 237 241 239 234 235 235 231 231 234 237 236 234 233 233 232
229 232 233 236 238 234 232 233 235 238 241 240 237 237 236 234 235 235 236 238 240 242 247 252 254 255 252 244 239 242 245 245 244 240 236 236 237 238 239 240 242 245 248 252 255 258 261 262 264 267 267 264 261 249 231 227 231 231 230 231 232 232 232 234 234 232 231 232 234 235 234 234 237 238 238 237 236 235 234 233 236 237 235 234 233 234
229 232 235 238 240 238 235 235 236 238 242 243 241 239 238 236 235 236 238 239 242 244 247 250 253 253 252 250 248 245 244 246 248 245 239 237 238 238 238 236 239 244 248 251 255 259 262 264 266 268 266 260 253 241 231 227 224 223 223 224 227 229 230 232 233 230 227 228 230 230 232 234 233 232 235 238 236 237 238 236 237 239 238 238 240 244
226 230 232 233 237 239 237 237 239 240 242 243 240 237 238 239 237 237 238 239 242 245 246 248 250 251 252 253 252 248 245 245 247 247 244 242 241 242 240 238 239 243 247 250 255 259 262 264 265 264 259 252 243 231 221 217 216 215 216 218 221 224 224 226 229 229 227 226 226 227 229 233 232 230 234 239 238 239 242 240 240 241 242 243 246 250
223 228 230 229 233 236 236 237 241 241 242 241 237 235 238 240 239 238 238 239 241 243 245 247 248 248 249 251 252 250 247 246 247 247 245 243 243 244 245 243 243 245 248 251 255 258 259 261 263 260 250 240 242 240 224 216 214 211 211 215 219 222 224 227 230 230 227 225 225 225 225 228 229 230 237 241 242 245 250 248 245 245 246 248 249 251
219 223 225 224 228 232 231 232 236 237 238 239 238 237 239 240 240 239 237 237 238 240 242 245 246 246 248 249 249 248 248 248 250 248 244 243 244 245 247 247 247 249 250 252 254 256 255 256 257 254 245 239 246 254 237 225 220 213 212 215 219 222 224 226 228 227 225 225 225 223 223 227 231 233 236 238 238 240 244 248 248 248 251 254 255 256
219 221 221 220 224 226 223 225 230 232 233 235 235 234 235 236 237 237 236 236 236 238 240 242 243 244 245 246 246 247 247 247 248 246 244 243 244 246 248 248 248 249 251 252 253 255 255 253 252 250 247 247 253 256 243 228 218 216 218 220 221 223 223 223 224 223 223 225 226 223 224 231 236 235 235 236 236 237 240 244 247 249 254 258 260 259
222 223 222 217 216 218 219 221 227 231 232 231 229 229 230 231 232 233 235 236 236 237 238 240 240 241 242 243 244 245 245 245 245 245 245 244 245 246 248 249 248 248 249 249 250 252 253 252 251 250 251 253 255 254 251 242 231 226 227 227 226 225 225 224 223 222 220 220 223 228 231 235 237 237 237 240 242 243 244 246 248 250 252 253 255 256
224 222 220 214 212 217 222 222 224 229 232 231 230 228 227 228 229 230 232 235 236 237 238 239 239 240 240 240 240 241 242 243 243 244 245 245 245 246 247 248 247 247 246 245 246 248 251 252 251 251 252 253 253 252 250 249 243 236 233 232 233 232 229 226 223 223 221 220 225 232 232 233 237 238 239 241 242 241 241 242 243 246 250 253 256 257
212 208 208 210 217 224 226 229 232 234 234 233 232 230 228 227 226 226 229 233 235 236 237 239 240 241 241 240 238 238 239 241 242 243 244 244 245 245 245 246 247 246 245 245 244 245 248 251 252 252 252 254 255 251 247 248 248 241 234 233 234 232 228 225 224 224 227 230 233 235 234 235 238 238 237 238 240 241 241 243 244 246 252 258 259 258
198 201 203 210 223 224 218 222 228 227 225 226 228 231 230 228 227 226 229 231 233 234 236 238 240 239 239 240 239 238 238 240 242 243 244 245 244 244 245 246 247 247 246 246 246 246 248 250 252 252 251 254 256 252 246 247 248 240 231 229 229 228 225 226 230 232 236 240 242 243 244 245 244 242 240 239 240 242 245 248 249 249 251 254 253 252
208 215 212 215 225 224 219 223 225 218 215 217 218 218 217 218 222 225 228 231 233 234 236 238 239 238 237 237 237 236 237 239 242 243 244 245 246 245 244 245 247 248 249 249 248 248 248 249 251 251 248 247 249 246 242 241 239 236 235 232 228 227 229 231 236 241 243 244 245 246 247 248 248 247 246 246 246 246 246 247 249 250 251 252 252 251
222 215 207 208 216 217 219 224 226 222 217 212 208 205 203 206 212 217 222 227 232 234 236 237 239 239 237 234 233 233 234 237 241 244 245 246 246 245 244 244 245 247 249 249 249 249 250 249 250 250 247 244 243 243 241 240 238 239 244 242 235 234 238 241 244 247 248 248 249 249 249 250 250 249 249 249 250 250 249 249 250 252 253 254 255 254
212 205 203 205 209 213 216 219 221 222 221 217 217 216 212 212 213 212 215 221 227 231 234 236 236 236 236 235 233 233 235 237 240 243 245 245 244 243 242 242 242 244 246 248 248 248 248 248 248 249 248 246 245 245 244 243 244 245 246 247 246 246 247 248 250 251 252 252 253 254 255 255 254 253 251 251 250 250 251 252 252 253 254 255 255 255
204 209 215 213 211 213 215 214 216 220 222 224 230 233 231 230 229 224 223 223 225 228 231 233 234 233 235 236 235 234 235 238 239 239 241 241 240 239 240 240 240 241 243 245 246 247 247 245 245 247 249 248 247 248 247 244 244 245 247 249 250 250 250 251 252 252 253 254 255 258 260 260 258 256 254 252 251 250 251 252 252 254 255 256 256 256
201 208 213 212 211 213 215 216 217 221 224 227 232 237 239 241 240 238 235 232 232 233 233 235 235 235 235 236 236 235 235 236 236 236 238 241 240 239 239 239 239 240 242 243 245 246 247 245 243 244 246 244 240 241 245 247 245 244 245 247 248 249 249 249 249 251 253 256 258 261 264 264 260 255 251 250 250 249 250 250 251 252 253 254 256 257
210 214 216 213 210 212 217 219 220 224 228 230 233 237 240 242 244 244 245 244 243 242 242 242 241 239 237 236 236 235 235 234 232 231 234 240 242 240 238 238 238 240 242 243 243 245 247 246 244 242 243 242 235 228 231 239 244 246 248 248 247 247 247 246 248 250 252 256 258 260 262 262 258 251 246 245 247 248 248 249 249 251 252 253 254 256
212 214 214 209 205 209 217 221 223 228 231 233 236 238 239 241 243 244 245 247 248 248 248 248 247 247 246 244 241 239 237 235 233 231 233 237 240 239 238 237 238 239 240 240 241 243 245 245 244 240 240 243 242 232 223 221 224 228 234 237 237 237 238 239 240 242 244 247 249 251 253 254 254 251 248 248 249 250 250 250 251 252 253 253 255 257
210 211 213 214 215 219 223 226 231 235 237 238 240 241 242 242 242 243 244 247 251 253 253 251 248 247 247 247 245 243 241 239 237 236 236 237 237 237 236 234 234 235 236 237 238 240 240 240 239 238 237 240 243 240 231 221 215 214 218 221 223 225 227 230 232 233 236 238 241 243 246 249 251 253 253 253 254 254 254 254 254 254 255 256 258 260
213 217 221 225 229 232 233 235 237 238 240 242 244 244 245 244 243 242 242 244 248 251 253 253 250 246 244 244 244 244 244 242 240 238 236 234 231 230 228 225 224 225 225 227 229 231 232 232 231 232 234 235 236 237 235 231 228 226 224 224 228 233 235 237 239 240 242 245 247 249 250 250 250 251 251 252 253 254 254 255 256 257 258 259 260 262
220 225 227 231 235 238 240 242 242 242 242 243 243 244 245 244 242 238 234 233 237 239 241 244 246 244 242 242 243 244 245 245 243 240 237 234 232 230 229 227 226 226 224 222 221 221 222 223 223 223 224 225 226 227 228 230 232 235 236 241 249 252 251 250 251 251 252 253 253 253 253 252 251 251 251 252 253 253 254 255 256 257 258 259 261 262
208 221 227 231 236 241 245 247 248 249 249 248 247 246 246 245 243 237 230 227 229 231 232 234 237 239 240 241 242 243 244 245 245 243 241 238 234 232 232 233 235 236 235 233 230 227 225 223 221 220 220 221 222 223 223 224 226 232 242 254 261 260 257 255 255 254 253 252 252 252 252 252 251 251 252 253 253 254 255 256 256 257 258 259 260 262
Height
5748 5749 5751 5752 5754 5756 5757 5757 5760 5761 5758 5761 5765 5765 5766 5768 5770 5771 5766 5765 5768 5769 5768 5768 5769 5770 5770 5771 5771 5772 5769 5769 5772 5772 5773 5774 5774 5776 5777 5776 5775 5775 5777 5779 5780 5781 5782 5783 5783 5784 5785 5785 5786 5788 5790 5791 5790 5789 5789 5791 5792 5793 5794 5795 5798 5799 5800 5801 5802 5802 5802 5803 5803 5804 5804 5804 5804 5805 5805 5804 5805 5806 5806 5807 5808 5809
5746 5746 5747 5749 5751 5752 5752 5754 5756 5755 5755 5759 5761 5762 5763 5764 5767 5768 5762 5762 5765 5765 5765 5766 5766 5766 5767 5767 5768 5771 5768 5764 5769 5770 5769 5772 5772 5773 5775 5774 5773 5773 5773 5775 5777 5778 5780 5780 5780 5781 5782 5783 5784 5786 5788 5789 5789 5788 5787 5789 5791 5793 5793 5795 5797 5799 5799 5800 5801 5801 5801 5802 5802 5802 5802 5802 5801 5802 5803 5803 5803 5803 5804 5805 5806 5806
5743 5743 5745 5747 5747 5747 5749 5751 5752 5752 5754 5757 5757 5758 5761 5762 5765 5765 5760 5760 5762 5762 5763 5763 5763 5763 5763 5764 5765 5768 5766 5762 5765 5767 5766 5769 5770 5771 5773 5772 5770 5770 5770 5772 5775 5776 5777 5778 5778 5779 5780 5780 5782 5784 5787 5789 5789 5788 5787 5787 5788 5790 5791 5792 5794 5795 5797 5797 5798 5798 5799 5800 5800 5799 5799 5799 5798 5798 5800 5802 5801 5800 5801 5802 5803 5804
5739 5740 5742 5743 5742 5744 5746 5748 5749 5750 5751 5753 5754 5756 5758 5759 5762 5762 5758 5757 5758 5759 5760 5760 5760 5760 5760 5761 5762 5764 5764 5761 5762 5764 5764 5765 5767 5768 5771 5770 5767 5767 5768 5768 5770 5772 5773 5774 5774 5775 5777 5778 5779 5782 5785 5787 5788 5788 5787 5786 5786 5786 5787 5788 5789 5791 5792 5793 5794 5795 5796 5796 5796 5796 5796 5796 5795 5795 5797 5799 5800 5799 5799 5800 5801 5802
5737 5737 5738 5739 5740 5742 5744 5744 5746 5747 5748 5750 5751 5752 5754 5757 5759 5759 5756 5753 5754 5756 5758 5758 5757 5757 5757 5758 5759 5760 5761 5760 5760 5761 5761 5762 5764 5765 5767 5767 5764 5764 5766 5764 5765 5767 5768 5770 5771 5772 5773 5775 5777 5779 5783 5786 5786 5786 5786 5785 5785 5784 5784 5784 5784 5786 5787 5789 5790 5790 5791 5791 5791 5792 5793 5793 5793 5793 5795 5796 5797 5797 5798 5799 5800 5800
5734 5733 5734 5737 5738 5739 5740 5741 5743 5745 5746 5747 5748 5750 5751 5753 5754 5754 5753 5752 5752 5754 5755 5755 5755 5755 5756 5757 5757 5757 5758 5757 5757 5758 5759 5760 5761 5762 5763 5764 5762 5761 5762 5762 5762 5764 5765 5765 5766 5768 5770 5772 5775 5778 5781 5784 5785 5785 5784 5784 5782 5781 5781 5782 5782 5783 5784 5785 5786 5786 5787 5787 5787 5788 5790 5791 5791 5792 5793 5794 5794 5796 5796 5797 5798 5798
5730 5729 5731 5735 5734 5736 5737 5738 5740 5742 5743 5745 5746 5747 5747 5748 5749 5749 5750 5750 5750 5752 5753 5752 5752 5753 5755 5756 5755 5755 5755 5753 5753 5755 5756 5756 5758 5759 5760 5761 5761 5759 5759 5760 5760 5761 5762 5763 5763 5765 5769 5772 5775 5778 5781 5783 5783 5783 5781 5780 5778 5778 5779 5780 5782 5783 5783 5784 5784 5784 5784 5784 5784 5786 5788 5790 5791 5791 5792 5792 5793 5794 5795 5796 5796 5796
5727 5726 5729 5732 5731 5733 5735 5735 5738 5739 5741 5743 5743 5742 5743 5745 5746 5746 5747 5747 5748 5750 5751 5749 5750 5750 5752 5754 5754 5752 5752 5751 5752 5752 5752 5754 5755 5756 5757 5758 5759 5756 5755 5758 5758 5758 5761 5764 5765 5766 5770 5773 5775 5776 5778 5780 5780 5778 5776 5774 5774 5776 5778 5780 5781 5783 5783 5782 5782 5782 5783 5783 5783 5785 5787 5788 5790 5790 5789 5790 5792 5793 5794 5794 5795 5795
5723 5724 5726 5727 5729 5730 5732 5733 5735 5736 5738 5740 5738 5738 5741 5743 5743 5744 5744 5745 5746 5748 5748 5748 5748 5748 5748 5751 5752 5750 5748 5750 5750 5747 5748 5751 5751 5753 5754 5754 5756 5753 5751 5754 5756 5757 5760 5763 5764 5766 5769 5770 5770 5771 5774 5774 5773 5771 5769 5770 5773 5776 5777 5777 5778 5779 5780 5780 5780 5781 5781 5782 5782 5784 5785 5786 5787 5788 5787 5788 5791 5792 5793 5793 5793 5794
5718 5720 5722 5724 5726 5727 5729 5730 5731 5732 5735 5736 5735 5736 5740 5740 5740 5742 5742 5744 5745 5744 5745 5747 5747 5746 5746 5748 5749 5747 5746 5747 5745 5744 5746 5748 5749 5750 5751 5751 5753 5749 5747 5752 5755 5755 5756 5759 5762 5764 5766 5767 5767 5767 5769 5768 5765 5764 5765 5769 5774 5776 5776 5775 5774 5775 5776 5777 5778 5779 5780 5780 5780 5781 5783 5784 5785 5785 5786 5787 5789 5791 5792 5792 5793 5793
5713 5716 5720 5721 5723 5724 5726 5727 5728 5730 5733 5733 5733 5736 5737 5738 5738 5739 5740 5741 5742 5741 5741 5744 5745 5744 5744 5745 5744 5743 5743 5743 5742 5742 5745 5746 5746 5747 5747 5749 5749 5745 5745 5750 5752 5753 5754 5757 5759 5761 5762 5763 5764 5764 5764 5762 5758 5760 5765 5771 5775 5775 5773 5773 5772 5771 5772 5773 5775 5776 5777 5778 5778 5780 5781 5781 5782 5783 5785 5786 5788 5789 5790 5791 5792 5792
5711 5714 5717 5718 5720 5722 5723 5725 5726 5728 5730 5731 5732 5735 5735 5736 5736 5736 5737 5738 5738 5738 5740 5742 5743 5742 5742 5741 5740 5739 5740 5740 5741 5741 5743 5744 5745 5745 5745 5746 5746 5743 5744 5747 5749 5750 5752 5754 5756 5757 5759 5761 5761 5760 5758 5755 5755 5761 5768 5771 5773 5772 5773 5772 5770 5770 5770 5770 5771 5773 5774 5775 5776 5777 5778 5778 5780 5781 5783 5784 5786 5787 5788 5789 5790 5790
5710 5712 5715 5715 5717 5719 5720 5723 5723 5725 5727 5729 5730 5732 5732 5734 5734 5734 5735 5736 5735 5736 5739 5740 5740 5740 5739 5737 5735 5735 5738 5740 5740 5740 5741 5742 5743 5743 5743 5743 5743 5744 5745 5745 5746 5748 5749 5751 5753 5754 5756 5756 5756 5754 5752 5752 5756 5764 5768 5769 5770 5771 5772 5771 5769 5768 5768 5768 5769 5769 5770 5772 5773 5775 5775 5776 5777 5779 5780 5782 5783 5785 5786 5787 5788 5788
5709 5710 5711 5712 5714 5717 5718 5720 5721 5722 5725 5727 5728 5729 5730 5731 5732 5732 5733 5734 5734 5735 5736 5737 5736 5737 5737 5734 5732 5733 5736 5738 5738 5738 5739 5740 5741 5742 5741 5740 5741 5742 5742 5743 5744 5745 5746 5748 5750 5752 5752 5750 5750 5750 5751 5755 5760 5763 5764 5765 5767 5768 5770 5770 5768 5767 5767 5767 5768 5768 5769 5770 5772 5773 5774 5774 5775 5776 5778 5780 5781 5783 5784 5785 5786 5786
5708 5708 5709 5710 5712 5714 5716 5718 5720 5721 5722 5723 5725 5726 5727 5729 5730 5730 5731 5732 5733 5733 5733 5733 5733 5733 5733 5731 5730 5732 5733 5733 5734 5735 5737 5738 5739 5739 5739 5739 5739 5739 5739 5740 5740 5741 5743 5745 5748 5750 5748 5746 5748 5750 5753 5758 5761 5762 5762 5763 5764 5765 5767 5768 5767 5766 5766 5766 5767 5768 5768 5770 5771 5772 5773 5773 5773 5775 5776 5778 5780 5781 5783 5783 5784 5784
5705 5706 5707 5708 5709 5710 5713 5716 5717 5718 5720 5721 5722 5723 5724 5726 5727 5728 5729 5729 5730 5730 5730 5730 5730 5730 5729 5729 5729 5730 5730 5730 5731 5733 5734 5735 5736 5737 5737 5737 5737 5737 5737 5737 5737 5739 5741 5744 5747 5748 5747 5745 5747 5751 5753 5757 5760 5760 5760 5760 5761 5764 5765 5766 5766 5766 5765 5765 5766 5767 5767 5768 5769 5770 5771 5772 5772 5773 5775 5776 5778 5780 5781 5781 5782 5782
5704 5705 5705 5705 5706 5707 5711 5713 5714 5716 5718 5718 5719 5720 5722 5724 5725 5726 5726 5727 5727 5728 5728 5729 5728 5727 5727 5727 5727 5727 5727 5727 5728 5730 5732 5733 5734 5735 5735 5735 5736 5736 5737 5736 5737 5738 5740 5743 5745 5747 5746 5746 5747 5749 5752 5755 5757 5757 5757 5757 5760 5762 5763 5764 5764 5764 5764 5764 5764 5765 5765 5766 5767 5767 5768 5770 5771 5772 5773 5775 5776 5777 5778 5779 5779 5780
5701 5703 5702 5702 5704 5706 5708 5710 5711 5713 5715 5715 5716 5719 5720 5722 5723 5723 5724 5725 5725 5726 5726 5726 5727 5726 5724 5723 5724 5724 5725 5725 5726 5728 5729 5731 5731 5732 5733 5734 5735 5736 5736 5736 5737 5738 5739 5741 5743 5744 5745 5744 5745 5746 5749 5752 5754 5755 5755 5755 5758 5760 5761 5761 5761 5762 5762 5762 5762 5762 5763 5764 5765 5766 5767 5768 5769 5770 5771 5773 5774 5775 5776 5776 5777 5778
5698 5699 5699 5700 5702 5704 5705 5707 5709 5710 5712 5713 5714 5715 5717 5719 5720 5720 5721 5722 5723 5723 5724 5724 5725 5724 5721 5720 5721 5722 5722 5723 5724 5725 5727 5728 5729 5730 5731 5733 5734 5735 5735 5736 5736 5736 5737 5739 5740 5741 5742 5742 5742 5744 5746 5749 5750 5751 5752 5753 5755 5757 5758 5759 5759 5759 5760 5760 5760 5760 5761 5762 5763 5764 5765 5766 5767 5768 5769 5771 5772 5772 5773 5774 5775 5776
5694 5696 5697 5698 5701 5701 5702 5704 5706 5707 5709 5710 5711 5712 5714 5716 5717 5717 5718 5719 5720 5721 5721 5722 5722 5720 5718 5719 5720 5720 5721 5722 5723 5723 5725 5726 5728 5729 5729 5731 5732 5733 5734 5735 5735 5734 5735 5737 5738 5739 5739 5740 5740 5742 5744 5746 5747 5748 5749 5750 5752 5754 5756 5757 5757 5757 5758 5758 5758 5758 5758 5759 5760 5762 5763 5764 5765 5766 5768 5769 5769 5770 5772 5772 5773 5774
5691 5694 5695 5696 5698 5698 5699 5702 5704 5706 5707 5708 5709 5710 5712 5713 5714 5715 5714 5716 5718 5718 5719 5720 5719 5717 5717 5718 5718 5718 5719 5720 5720 5722 5723 5725 5726 5728 5728 5729 5730 5731 5733 5734 5734 5734 5734 5735 5737 5737 5738 5739 5739 5739 5741 5743 5744 5745 5746 5747 5749 5751 5753 5755 5756 5756 5756 5756 5756 5756 5756 5756 5757 5759 5761 5762 5763 5764 5765 5766 5767 5769 5770 5771 5772 5773
5688 5691 5693 5694 5694 5696 5698 5700 5702 5703 5704 5705 5707 5709 5710 5711 5712 5712 5712 5713 5715 5715 5716 5717 5715 5714 5715 5715 5715 5716 5717 5717 5719 5720 5721 5723 5724 5726 5727 5727 5728 5730 5731 5732 5732 5733 5733 5734 5735 5735 5736 5737 5737 5738 5739 5741 5742 5743 5744 5745 5745 5748 5751 5753 5754 5754 5754 5754 5754 5754 5754 5754 5755 5757 5758 5759 5760 5761 5763 5764 5765 5767 5768 5769 5770 5771
5686 5688 5690 5691 5692 5694 5696 5696 5697 5699 5700 5701 5704 5706 5707 5709 5709 5709 5710 5711 5712 5712 5713 5715 5713 5712 5713 5714 5714 5715 5716 5716 5717 5718 5719 5721 5722 5724 5725 5726 5727 5728 5729 5731 5731 5731 5731 5732 5732 5732 5733 5734 5736 5737 5738 5739 5740 5741 5742 5742 5743 5745 5748 5751 5752 5752 5752 5752 5752 5753 5753 5753 5754 5755 5756 5757 5758 5759 5760 5762 5764 5765 5766 5767 5768 5769
5682 5684 5686 5688 5690 5691 5691 5692 5694 5696 5697 5698 5700 5702 5704 5706 5706 5707 5708 5708 5708 5709 5711 5712 5711 5710 5711 5713 5713 5714 5714 5715 5716 5717 5718 5719 5720 5722 5723 5724 5725 5726 5728 5729 5729 5729 5729 5729 5730 5731 5731 5732 5734 5736 5737 5737 5737 5738 5739 5740 5740 5742 5746 5748 5749 5750 5750 5750 5750 5751 5751 5752 5752 5753 5754 5755 5756 5757 5758 5760 5762 5763 5764 5765 5766 5767
5680 5682 5684 5685 5687 5688 5688 5689 5691 5693 5694 5695 5698 5700 5701 5702 5703 5704 5705 5704 5705 5707 5708 5708 5707 5707 5709 5711 5712 5712 5713 5714 5715 5716 5717 5718 5719 5720 5721 5722 5724 5725 5726 5727 5727 5727 5727 5727 5728 5730 5731 5731 5732 5733 5734 5734 5733 5734 5735 5735 5737 5739 5742 5745 5746 5747 5747 5748 5748 5749 5750 5750 5750 5751 5752 5752 5754 5755 5756 5758 5759 5760 5762 5763 5764 5765
5677 5679 5680 5682 5684 5684 5685 5686 5687 5688 5690 5693 5695 5696 5696 5698 5700 5700 5701 5701 5703 5705 5706 5705 5704 5705 5708 5709 5710 5711 5711 5712 5713 5714 5715 5716 5717 5718 5719 5720 5721 5722 5723 5724 5724 5725 5725 5725 5727 5728 5729 5729 5729 5730 5730 5730 5730 5730 5730 5732 5734 5736 5739 5742 5744 5744 5745 5746 5746 5746 5747 5748 5747 5748 5748 5749 5751 5752 5754 5755 5757 5758 5759 5761 5762 5762
5673 5674 5677 5679 5680 5680 5680 5682 5684 5685 5687 5690 5691 5691 5693 5696 5697 5697 5698 5699 5700 5702 5703 5702 5702 5704 5706 5707 5708 5709 5710 5711 5712 5712 5713 5714 5715 5716 5717 5718 5719 5720 5720 5721 5721 5722 5722 5723 5724 5725 5725 5725 5725 5725 5726 5726 5726 5727 5727 5729 5731 5733 5736 5739 5741 5741 5742 5742 5742 5743 5744 5745 5743 5744 5745 5747 5749 5750 5751 5753 5754 5756 5757 5758 5759 5760
5670 5671 5674 5676 5676 5676 5678 5680 5682 5683 5685 5687 5687 5687 5689 5692 5694 5694 5695 5696 5696 5698 5699 5699 5700 5702 5703 5705 5707 5708 5709 5710 5710 5711 5712 5713 5713 5714 5715 5716 5717 5717 5717 5718 5718 5719 5720 5720 5720 5721 5721 5721 5721 5721 5721 5722 5723 5723 5724 5727 5729 5731 5733 5736 5737 5737 5737 5739 5740 5740 5742 5742 5741 5741 5743 5745 5747 5748 5749 5751 5752 5753 5755 5756 5757 5758
5666 5668 5670 5672 5673 5674 5675 5677 5679 5681 5682 5683 5683 5684 5686 5688 5689 5690 5691 5691 5693 5695 5695 5696 5699 5700 5701 5703 5705 5706 5707 5708 5709 5710 5710 5711 5712 5713 5713 5714 5715 5715 5715 5716 5716 5716 5716 5717 5717 5717 5717 5717 5717 5716 5716 5718 5720 5721 5723 5725 5726 5728 5731 5732 5734 5733 5733 5735 5738 5739 5739 5739 5739 5740 5742 5743 5745 5746 5747 5748 5750 5751 5752 5753 5754 5756
5664 5665 5667 5669 5670 5670 5672 5675 5677 5678 5680 5680 5680 5681 5683 5684 5685 5686 5687 5689 5690 5691 5692 5694 5697 5699 5700 5702 5703 5704 5705 5706 5707 5708 5709 5710 5710 5711 5712 5712 5713 5713 5713 5714 5714 5714 5714 5714 5714 5714 5714 5713 5713 5713 5713 5715 5717 5719 5721 5723 5724 5726 5728 5729 5730 5731 5731 5733 5735 5736 5737 5737 5737 5738 5740 5741 5743 5743 5744 5746 5747 5748 5750 5751 5752 5753
5662 5662 5663 5665 5666 5667 5670 5672 5673 5675 5675 5675 5677 5679 5680 5682 5683 5684 5685 5686 5687 5688 5690 5692 5694 5697 5698 5700 5701 5702 5703 5704 5705 5706 5707 5708 5709 5709 5710 5710 5711 5711 5711 5712 5712 5712 5712 5712 5712 5712 5711 5711 5710 5710 5710 5712 5715 5717 5719 5721 5722 5723 5725 5725 5726 5728 5730 5731 5732 5733 5735 5735 5735 5737 5737 5738 5740 5741 5742 5744 5745 5746 5747 5749 5750 5751
5658 5658 5660 5662 5663 5664 5667 5668 5670 5671 5671 5671 5674 5677 5677 5679 5680 5681 5683 5684 5684 5686 5688 5689 5691 5694 5696 5698 5699 5700 5701 5702 5703 5704 5705 5706 5707 5707 5708 5709 5709 5709 5709 5710 5710 5710 5710 5710 5710 5710 5709 5709 5708 5708 5708 5710 5713 5714 5716 5718 5719 5720 5722 5723 5724 5725 5727 5728 5730 5731 5732 5733 5734 5735 5735 5735 5737 5738 5740 5741 5742 5744 5745 5746 5747 5748
5654 5655 5657 5659 5659 5661 5664 5665 5666 5667 5666 5667 5670 5673 5673 5675 5677 5679 5681 5682 5682 5683 5685 5687 5689 5692 5694 5695 5696 5698 5699 5700 5701 5702 5703 5704 5705 5706 5706 5706 5707 5707 5708 5708 5709 5708 5708 5708 5708 5708 5708 5708 5707 5707 5707 5709 5710 5712 5714 5716 5717 5718 5719 5720 5721 5723 5724 5726 5728 5729 5730 5731 5732 5732 5733 5734 5735 5736 5737 5738 5740 5741 5742 5744 5745 5746
5651 5653 5654 5655 5656 5658 5660 5661 5662 5663 5662 5662 5666 5669 5670 5671 5674 5676 5678 5679 5680 5681 5683 5685 5687 5689 5691 5692 5694 5695 5696 5697 5698 5700 5701 5702 5703 5703 5704 5704 5705 5705 5706 5706 5707 5706 5706 5706 5706 5706 5707 5707 5707 5707 5707 5708 5709 5711 5712 5714 5715 5716 5717 5718 5719 5720 5722 5724 5726 5727 5728 5729 5729 5731 5732 5732 5733 5734 5735 5736 5737 5738 5740 5741 5742 5743
5649 5650 5651 5652 5654 5655 5657 5658 5658 5659 5659 5659 5663 5665 5667 5668 5670 5673 5675 5676 5677 5678 5680 5682 5684 5686 5688 5689 5691 5692 5693 5695 5696 5697 5699 5699 5700 5701 5702 5702 5703 5703 5704 5705 5704 5704 5704 5704 5705 5705 5705 5706 5706 5706 5707 5708 5709 5710 5711 5712 5713 5714 5715 5716 5718 5719 5720 5722 5723 5725 5726 5727 5728 5729 5730 5730 5732 5733 5733 5734 5735 5736 5737 5738 5739 5740
5646 5648 5649 5650 5652 5653 5654 5655 5655 5656 5657 5658 5659 5661 5663 5665 5667 5669 5671 5673 5674 5676 5677 5679 5681 5683 5684 5686 5688 5689 5690 5692 5693 5695 5696 5697 5698 5699 5699 5700 5701 5701 5702 5703 5703 5702 5702 5703 5703 5703 5704 5704 5705 5706 5706 5707 5708 5709 5710 5711 5712 5713 5714 5715 5716 5717 5718 5720 5721 5722 5724 5725 5726 5727 5728 5728 5729 5730 5731 5732 5733 5733 5734 5735 5736 5736
5643 5645 5647 5648 5650 5651 5652 5652 5653 5654 5655 5655 5656 5657 5659 5661 5663 5665 5668 5669 5671 5673 5674 5676 5678 5679 5681 5682 5684 5686 5687 5689 5690 5692 5693 5694 5695 5696 5697 5697 5698 5698 5699 5700 5701 5700 5700 5701 5702 5702 5703 5703 5704 5705 5705 5706 5707 5707 5708 5709 5710 5711 5712 5713 5715 5716 5716 5718 5719 5720 5721 5723 5723 5724 5726 5726 5727 5728 5729 5730 5730 5731 5732 5732 5733 5733
5641 5643 5645 5646 5648 5649 5649 5650 5651 5651 5652 5653 5654 5655 5656 5657 5659 5662 5664 5666 5668 5669 5671 5673 5674 5676 5677 5679 5680 5682 5684 5685 5687 5689 5690 5691 5693 5694 5694 5695 5695 5696 5697 5697 5698 5698 5698 5699 5700 5701 5701 5702 5702 5703 5704 5704 5705 5706 5706 5707 5708 5709 5711 5712 5713 5714 5715 5716 5717 5718 5719 5720 5721 5722 5723 5724 5724 5725 5726 5727 5728 5728 5729 5729 5730 5730
5639 5641 5642 5644 5645 5646 5647 5647 5648 5648 5649 5651 5652 5653 5654 5655 5656 5659 5660 5662 5664 5666 5668 5669 5671 5672 5674 5674 5676 5678 5680 5682 5684 5686 5687 5688 5690 5691 5691 5692 5692 5693 5694 5695 5696 5696 5696 5697 5698 5699 5700 5700 5701 5702 5702 5702 5703 5704 5704 5705 5706 5707 5709 5710 5711 5712 5713 5714 5715 5716 5717 5718 5719 5720 5720 5721 5722 5723 5724 5724 5725 5726 5726 5726 5727 5727
5636 5638 5640 5642 5643 5644 5645 5645 5645 5646 5647 5648 5649 5650 5651 5653 5654 5656 5657 5659 5661 5662 5664 5666 5667 5669 5670 5671 5673 5675 5677 5679 5681 5682 5683 5684 5686 5687 5688 5689 5690 5691 5691 5692 5693 5694 5695 5695 5695 5696 5698 5698 5698 5699 5700 5701 5702 5702 5702 5703 5704 5705 5707 5708 5709 5711 5712 5712 5713 5714 5715 5716 5717 5717 5718 5719 5719 5721 5722 5722 5723 5723 5724 5724 5724 5725
5634 5636 5638 5639 5640 5641 5642 5643 5643 5644 5645 5646 5647 5648 5649 5650 5652 5653 5654 5656 5657 5659 5661 5662 5664 5665 5666 5667 5669 5671 5673 5674 5676 5678 5679 5681 5682 5684 5685 5686 5687 5687 5688 5689 5690 5691 5692 5692 5693 5694 5696 5696 5696 5696 5697 5698 5699 5700 5700 5701 5702 5703 5705 5706 5707 5708 5709 5710 5711 5712 5713 5714 5714 5715 5716 5716 5717 5718 5719 5719 5720 5720 5721 5721 5722 5722
5632 5634 5636 5637 5638 5639 5639 5640 5641 5643 5644 5645 5646 5647 5648 5649 5650 5651 5652 5653 5654 5656 5657 5659 5660 5662 5663 5664 5665 5667 5668 5670 5672 5674 5676 5677 5678 5680 5681 5682 5683 5684 5685 5686 5687 5688 5689 5690 5690 5691 5692 5693 5693 5694 5695 5696 5696 5697 5698 5698 5699 5700 5702 5703 5704 5705 5706 5707 5708 5709 5710 5711 5711 5712 5713 5713 5714 5715 5715 5716 5716 5717 5717 5718 5719 5719
5631 5632 5633 5635 5636 5636 5637 5638 5639 5641 5642 5643 5644 5645 5646 5647 5649 5649 5650 5651 5652 5653 5655 5656 5657 5658 5659 5660 5662 5664 5665 5667 5669 5670 5672 5673 5675 5676 5677 5678 5679 5680 5681 5682 5683 5684 5685 5686 5687 5688 5689 5689 5690 5690 5692 5693 5694 5695 5695 5696 5697 5698 5699 5700 5701 5702 5703 5704 5705 5706 5706 5707 5708 5709 5709 5710 5710 5711 5712 5712 5713 5713 5714 5715 5716 5716
5629 5630 5631 5633 5634 5635 5635 5637 5638 5639 5640 5642 5643 5644 5645 5646 5647 5648 5649 5650 5651 5652 5653 5654 5655 5656 5657 5658 5659 5661 5662 5663 5665 5667 5668 5669 5670 5671 5672 5674 5675 5676 5677 5678 5679 5680 5681 5683 5684 5685 5686 5686 5686 5686 5688 5689 5690 5691 5692 5693 5694 5695 5696 5697 5697 5698 5699 5700 5701 5702 5703 5704 5704 5705 5706 5706 5707 5707 5708 5709 5709 5710 5710 5711 5712 5713
5627 5629 5630 5631 5632 5633 5634 5635 5636 5638 5639 5640 5641 5642 5644 5645 5646 5646 5647 5648 5649 5650 5651 5652 5653 5654 5654 5655 5656 5657 5658 5660 5661 5663 5664 5665 5666 5667 5669 5670 5671 5672 5674 5675 5676 5677 5678 5679 5681 5682 5683 5683 5682 5682 5683 5684 5686 5687 5689 5690 5691 5692 5693 5694 5695 5695 5696 5696 5697 5698 5699 5700 5701 5701 5702 5702 5703 5703 5704 5705 5705 5706 5706 5707 5708 5708
5627 5628 5629 5630 5631 5632 5633 5634 5635 5636 5637 5639 5640 5641 5642 5643 5644 5645 5646 5647 5648 5649 5650 5651 5651 5652 5652 5653 5654 5655 5656 5657 5658 5659 5661 5661 5662 5664 5665 5666 5667 5668 5670 5671 5672 5673 5674 5676 5677 5679 5680 5680 5679 5679 5680 5680 5682 5683 5684 5686 5687 5688 5689 5690 5691 5692 5693 5693 5694 5695 5695 5696 5697 5697 5698 5698 5698 5699 5700 5700 5701 5701 5702 5703 5703 5704
5626 5627 5628 5629 5630 5631 5632 5633 5634 5635 5636 5637 5638 5639 5640 5641 5642 5643 5644 5644 5645 5646 5648 5649 5650 5650 5651 5651 5652 5653 5654 5654 5655 5656 5657 5658 5659 5660 5661 5662 5663 5664 5666 5667 5668 5669 5670 5672 5673 5675 5676 5676 5677 5678 5678 5678 5678 5679 5680 5682 5683 5684 5685 5687 5687 5688 5689 5690 5690 5691 5692 5692 5693 5693 5694 5694 5694 5695 5695 5696 5697 5697 5698 5698 5699 5699
5625 5626 5627 5628 5629 5630 5631 5632 5633 5634 5634 5635 5636 5637 5638 5639 5640 5640 5641 5642 5643 5644 5645 5646 5647 5648 5648 5649 5649 5650 5651 5652 5653 5654 5654 5655 5656 5657 5658 5658 5659 5661 5662 5663 5664 5666 5666 5668 5669 5670 5672 5673 5673 5675 5676 5675 5674 5675 5676 5678 5679 5680 5682 5683 5683 5684 5685 5686 5686 5687 5688 5688 5689 5689 5690 5690 5690 5691 5691 5692 5692 5693 5693 5694 5694 5695
5623 5624 5625 5626 5627 5628 5629 5630 5631 5632 5633 5634 5634 5635 5636 5637 5637 5638 5639 5639 5640 5641 5641 5642 5643 5644 5645 5646 5646 5647 5648 5648 5650 5651 5651 5652 5653 5654 5655 5655 5656 5657 5659 5660 5661 5662 5663 5664 5665 5666 5667 5668 5669 5670 5671 5672 5671 5671 5672 5673 5675 5676 5677 5678 5679 5680 5681 5681 5682 5683 5683 5684 5685 5685 5686 5686 5686 5687 5687 5688 5688 5689 5689 5689 5689 5690
5621 5622 5624 5625 5626 5626 5627 5628 5629 5630 5631 5632 5632 5633 5633 5634 5635 5636 5636 5637 5638 5638 5639 5639 5640 5641 5641 5642 5642 5643 5644 5645 5646 5647 5648 5649 5650 5651 5652 5652 5653 5654 5655 5656 5657 5658 5659 5660 5661 5662 5663 5664 5665 5666 5666 5667 5668 5668 5669 5670 5671 5672 5673 5674 5675 5676 5676 5677 5678 5678 5679 5679 5680 5680 5681 5681 5682 5682 5683 5683 5683 5684 5684 5684 5684 5684
5620 5621 5622 5623 5624 5625 5625 5626 5627 5628 5628 5629 5630 5631 5631 5632 5632 5633 5634 5634 5635 5635 5636 5636 5637 5637 5638 5638 5639 5639 5640 5641 5642 5643 5644 5645 5646 5647 5648 5649 5649 5650 5651 5652 5653 5654 5655 5656 5656 5657 5658 5659 5660 5661 5662 5663 5663 5664 5665 5666 5667 5668 5669 5669 5670 5671 5672 5672 5673 5674 5674 5675 5675 5676 5676 5677 5677 5678 5678 5678 5679 5679 5679 5680 5680 5680